Aérodrome :
LOGIN :

S'inscrire | Disclaimer

   EN    FR    IT 

 










Légende :    VFR   VFR Marginal   IFR   IFR Intensif   IFR Très Intensif
Visi : 
Plafond : 
>= 8 km
>= 3000ft
5 à 8 km
1000 à 3000 ft
1500m à 5 km
500 à 1000 ft
800 à 1500m
200 à 500 ft
< 800m
< 200 ft
Symboles :   Orages  Brouillard  Fortes neiges  Fortes précipitations  Vent > 20 kt
SIGMETs :   Divers  Orages  Givrage  Turbulence  Onde Orograph.  Cendres Volcan.







- Altitude de l'aérodrome : 142 ft
- Code IATA : FLR


LIRQ - Firenze Amerigo Vespucci

DERNIER METAR :
  • 240050Z VRB01KT CAVOK 15/11 Q1018

METARs EXPIRÉS :
  • 240020Z VRB02KT CAVOK 16/10 Q1018
  • 232350Z VRB02KT CAVOK 15/10 Q1018
  • 232320Z VRB01KT CAVOK 17/09 Q1018
  • 232250Z 25003KT 210V270 CAVOK 19/09 Q1018
  • 232220Z VRB02KT CAVOK 18/10 Q1018

TAF TAF LIRQ
Valide du 24 à 00h jusqu'au 25 à 00h UTC


232300Z 2400/2424 VRB05KT CAVOK
BECMG 2409/2411 05010KT
BECMG 2416/2418 VRB05KT
Pas de NOTAMs connus pour ce terrain.



MET'MAP, la Météo Aéronautique d'un coup d'oeil ! - Copyright ORBIFLY Décembre 2007 - Disclaimer

ORBIFLY MET'MAP TEAM :

Programmation & Développement : Alexandra Zaïnal
Conception & Développement : Baudouin d'Aumeries
Co-Programmation & Développement : Marc-Olivier Méhu
Soutien technique & logistique : Manuel Goepfert

Contact : metmap@orbifly.com




SOURCES & CREDITS :

   NOAA